Regional Weather Roundup
Issued by NWS

Home | Current Version | Previous Version | Graphics & Text | Print | Product List | Glossary Off
Versions: 1 2 3 4 5 6 7 8 9 10 11 12 13 14 15 16 17 18 19 20 21 22 23 24 25 26 27 28 29 30 31 32 33 34 35 36 37 38 39 40 41 42 43 44 45 46 47 48 49 50

000
ASUS43 KMPX 060701
RWRMN
WEATHER ROUNDUP FOR MINNESOTA
NATIONAL WEATHER SERVICE TWIN CITIES/CHANHASSEN MN
200 AM CDT MON JUL 06 2015


NOTE: "FAIR" INDICATES FEW OR NO CLOUDS BELOW 12,000 FEET WITH NO
SIGNIFICANT WEATHER AND/OR OBSTRUCTIONS TO VISIBILITY. N/A MEANS
CURRENT SKY AND/OR WEATHER CONDITIONS ARE NOT AVAILABLE.

MNZ060>063-068>070-060800-
   Twin Cities Metro

CITY           SKY/WX    TMP DP  RH WIND       PRES   REMARKS
TWIN CITIES    TSTM      73  70  90 SE8       29.78F FOG
ST PAUL        TSTM      72  70  93 N5        29.79F FOG
CRYSTAL        LGT RAIN  74  70  87 E5        29.78F
BLAINE         LGT RAIN  73  72  94 N10       29.82R
LAKEVILLE      CLOUDY    72  66  83 S3        29.78F
EDEN PRAIRIE   LGT RAIN  74  70  87 SE6       29.76F
SOUTH ST PAUL  TSTM      73  70  91 CALM      29.79F
LAKE ELMO      TSTM      72  70  94 SE3       29.83S
$$
MNZ001>005-007-008-013>017-022>024-027-028-060800-
   Northwest Minnesota

CITY           SKY/WX    TMP DP  RH WIND       PRES   REMARKS
BEMIDJI        MOCLDY    63  61  93 N5        29.89S FOG
HALLOCK        PTCLDY    61  55  82 N15       29.94R HAZE
ROSEAU         MOCLDY    61  55  82 N13       29.92R HAZE
WARROAD        MOCLDY    61  55  82 NW9       29.93R FOG
THIEF RVR FALL CLOUDY    63  57  82 N9        29.91R
CROOKSTON      MOCLDY    63  61  94 N7        29.90S FOG
FOSSTON          N/A     61  59  94 CALM      29.90F FOG
DETROIT LAKES  CLOUDY    64  63  94 N6        29.89S
MOORHEAD       CLOUDY    64  61  88 N10       29.89R HAZE
PARK RAPIDS    CLOUDY    68  63  84 N9        29.88F
MAHNOMEN       PTSUNNY   64  63  94 N7        29.89F FOG
$$
MNZ006-009>011-018-025>026-060800-
   North Central Minnesota

CITY           SKY/WX    TMP DP  RH WIND       PRES   REMARKS
BAUDETTE       CLOUDY    61  58  90 NW5       29.88R FOG
FLAG ISLAND    MOCLDY    61  55  82 N20       29.91R
INTL FALLS     CLOUDY    53  52  96 CALM      29.87F FOG
WASKISH        MOCLDY    63  61  94 N3        29.89S FOG
BIG FORK       FOG       59  57  94 CALM      29.89S VSB 1
LONGVILLE      MOCLDY    64  63  94 N3        29.87F
GRAND RAPIDS   PTCLDY    63  61  94 N5        29.88S
CRANE LAKE     CLEAR     59  57  94 N6        29.88S
COOK           PTCLDY    59  57  94 CALM      29.88R FOG
WALKER         CLOUDY    65  64  96 N6        29.89F
$$
MNZ012-019>021-037-060800-
   Northeast Minnesota

CITY           SKY/WX    TMP DP  RH WIND       PRES   REMARKS
DULUTH         FOG       67  65  93 W8        29.84F VSB 3/4
ELY            PTCLDY    63  63 100 NW3       29.86R
HIBBING        PTCLDY    64  61  90 N5        29.87R
DULUTH HARBOR  CLOUDY    66  64  94 W3        29.83F
TWO HARBORS    MOCLDY    70  64  83 W3        29.83F
SILVER BAY     CLOUDY    66  64  94 CALM      29.82F
GRAND MARAIS     N/A     56  55  97 SW9       29.79S
G MARAIS ARPRT CLOUDY    63  61  94 W5        29.85S
$$
MNZ029>031-032-039>041-046>048-054>057-064-060800-
   West Central Minnesota

CITY           SKY/WX    TMP DP  RH WIND       PRES   REMARKS
FERGUS FALLS   CLOUDY    70  63  78 NE5       29.86R
WHEATON        CLOUDY    66  63  88 N13       29.86S
MORRIS         CLOUDY    70  66  88 N10       29.82R
ALEXANDRIA     CLOUDY    69  66  90 N12G20    29.84S
ELBOW LAKE     FAIR      69  65  86 N12       29.84R
WADENA         CLOUDY    66  63  88 N6        29.86S
GLENWOOD       CLOUDY    70  66  88 N12       29.82F
APPLETON       CLOUDY    72  68  88 N9        29.81R
BENSON         CLOUDY    70  66  88 NE6       29.81R
ORTONVILLE     CLOUDY    70  64  83 N15       29.84R
MADISON        LGT RAIN  72  68  88 N8        29.81R
WILLMAR        LGT RAIN  72  70  94 E5        29.80R
$$
MNZ033>034-036-042>043-049>051-058-059-060800-
   Central Minnesota

CITY           SKY/WX    TMP DP  RH WIND       PRES   REMARKS
ST CLOUD       LGT RAIN  70  69  97 NE6       29.81R
SAUK CENTRE    FAIR      69  66  89 N12G22    29.81S
PAYNESVILLE    LGT RAIN  67  67  97 NW6       29.79F
AITKIN         CLOUDY    66  61  82 NW3       29.85S
PINE RIVER       N/A     66  63  88 N7        29.91R
BRAINERD       CLOUDY    68  67  96 E3        29.86S
STAPLES        CLOUDY    66  64  94 N7        29.86F
LONG PRAIRIE   FAIR      68  64  88 N14G24    29.81F
LITTLE FALLS   RAIN      66  64  94 N5        29.78F
LITCHFIELD     LGT RAIN  72  70  94 N7        29.79F
BUFFALO        CLOUDY    69  66  91 N9        29.82R
MAPLE LAKE     CLOUDY    70  69  97 CALM      29.81F
$$
MNZ037-044-045-052-053-060800-
   East Central Minnesota

CITY           SKY/WX    TMP DP  RH WIND       PRES   REMARKS
PRINCETON      LGT RAIN  72  70  94 CALM      29.83F
MORA           HVY RAIN  64  64 100 CALM      29.85S
CAMBRIDGE      RAIN      72  63  73 E3        29.81F
RUSH CITY      TSTM      68  66  94 E3        29.84F
MOOSE LAKE     CLOUDY    66  64  94 CALM      29.81F
HINCKLEY       LGT RAIN  68  68 100 CALM      29.82F
CLOQUET        CLOUDY    66  64  94 CALM      29.84F
MCGREGOR       CLOUDY    66  64  94 CALM      29.86F
$$
MNZ071>073-080-081-089-090-097-098-060800-
   Southwest Minnesota

CITY           SKY/WX    TMP DP  RH WIND       PRES   REMARKS
GRANITE FALLS  RAIN      70  68  95 W7        29.78F
CANBY          LGT RAIN  70  67  92 NW12      29.82S
MARSHALL       CLOUDY    70  64  83 NW13      29.77F
REDWOOD FALLS  TSTM      70  69  97 N5        29.80R FOG
OLIVIA         TSTM      68  64  88 N3        29.79R
PIPESTONE      TSTM      68  66  94 NE13      29.82S
WINDOM         LGT RAIN  73  68  83 NW13G18   29.79R
WORTHINGTON    CLOUDY    70  64  83 N8        29.82R
JACKSON        CLOUDY    77  70  78 S13       29.76F
SLAYTON        TSTM      69  69 100 NE12      29.82F
$$
MNZ065>067-074>077-082>085-091>093-060800-
   South Central Minnesota

CITY           SKY/WX    TMP DP  RH WIND       PRES   REMARKS
MANKATO        CLOUDY    75  66  73 S13       29.75F
NEW ULM        TSTM      73  72  94 NW9G17    29.78R
ST JAMES       CLOUDY    77  70  78 SE14G20   29.74F
FAIRMONT       CLOUDY    73  64  73 S15       29.76F
GLENCOE        HVY RAIN  74  73  94 N10       29.79R
FARIBAULT      CLOUDY    73  68  83 S8        29.80F
OWATONNA       CLOUDY    75  66  73 S16G26    29.80F
WASECA         CLOUDY    73  66  78 S13G21    29.79F
ALBERT LEA     CLOUDY    75  66  73 S13G22    29.81F
$$
MNZ078>079-086>088-094>096-060800-
   Southeast Minnesota

CITY           SKY/WX    TMP DP  RH WIND       PRES   REMARKS
ROCHESTER      CLOUDY    72  68  87 S15       29.85F
RED WING       LGT RAIN  75  68  78 SE7       29.80F
STANTON        CLOUDY    73  68  83 S10       29.79F
DODGE CENTER   CLOUDY    73  66  78 S18G24    29.83F
WINONA         CLOUDY    73  66  78 SE6       29.85F
AUSTIN         CLOUDY    73  68  83 S12       29.85S
PRESTON        MOCLDY    70  66  88 S13       29.88F FOG
$$
ABBREVIATIONS USED IN REMARKS
   TC - TEMPERATURES IN CELSIUS
  WCI - WIND CHILL INDEX
   HX - HEAT INDEX
  VSB - VISIBILITY
$$



USA.gov is the U.S. government's official web portal to all federal, state and local government web resources and services.